Weather History for Greenville, AL

Change the Weather History Date:

Monday, June 17, 2013

  Actual Average Record
Temperature  
Mean Temperature 80 °F -  
Max Temperature 91 °F 89 °F 100 °F (1944)
Min Temperature 69 °F 68 °F 58 °F (1974)
Cooling Degree Days 15    
Growing Degree Days 30 (Base 50)    
Moisture  
Dew Point 71 °F    
Average Humidity 85    
Maximum Humidity 97    
Minimum Humidity 53    
Precipitation  
Precipitation 0.44 in - - ()
Sea Level Pressure  
Sea Level Pressure 30.00 in    
Wind  
Wind Speed 4 mph (South)    
Max Wind Speed 13 mph    
Max Gust Speed 20 mph    
Visibility 8 miles    
Events Fog , Rain , Thunderstorm    
Averages and records for this station are not official NWS values.
T = Trace of Precipitation, MM = Missing Value Source: NWS Daily Summary

Daily Weather History Graph

Daily Weather History Graph

Search for Another Location

Airport:

Trip Planner

Search our weather history database for the weather conditions in past years. The results will help you decide how hot, cold, wet, or windy it might be!

Date:

Astronomy

Jun. 17, 2013 Rise Set
Actual Time 5:40 AM CDT 7:54 PM CDT
Civil Twilight 5:12 AM CDT 8:22 PM CDT
Nautical Twilight 4:37 AM CDT 8:57 PM CDT
Astronomical Twilight 4:00 AM CDT 9:34 PM CDT
Moon 1:49 PM CDT (6/17) 12:56 AM CDT (6/17)
Length of Visible Light 15h 10m
Length of Day
14h 13m
First Quarter, 60% of the Moon is Illuminated
Jun 17
First Quarter
Jun 23
Full
Jun 29
Last Quarter
Jul 8
New
Jul 15
First Quarter

Hourly Weather History & Observations

Time (CDT) Temp. Heat Index Dew Point Humidity Pressure Visibility Wind Dir Wind Speed Gust Speed Precip Events Conditions
12:49 AM 75.2 °F - 71.6 °F 89% 30.04 in 10.0 mi SSE 3.5 mph - N/A   Mostly Cloudy
12:56 AM 75.9 °F - 72.0 °F 87% 30.01 in 10.0 mi SSE 3.5 mph - N/A   Overcast
1:56 AM 77.0 °F - 73.0 °F 88% 30.01 in 10.0 mi South 4.6 mph - N/A   Overcast
2:37 AM 75.2 °F - 73.4 °F 94% 30.01 in 9.0 mi South 4.6 mph - N/A   Scattered Clouds
2:56 AM 75.9 °F - 73.9 °F 94% 30.00 in 8.0 mi SSW 3.5 mph - N/A   Mostly Cloudy
3:04 AM 75.2 °F - 73.4 °F 94% 30.01 in 8.0 mi SSW 4.6 mph - N/A   Mostly Cloudy
3:23 AM 75.2 °F - 73.4 °F 94% 30.01 in 8.0 mi SSW 3.5 mph - N/A   Scattered Clouds
3:56 AM 75.9 °F - 73.9 °F 94% 30.00 in 7.0 mi South 3.5 mph - N/A   Partly Cloudy
4:12 AM 75.2 °F - 73.4 °F 94% 30.01 in 6.0 mi South 3.5 mph - N/A   Mostly Cloudy
4:56 AM 75.9 °F - 73.9 °F 94% 30.00 in 6.0 mi South 3.5 mph - N/A   Overcast
5:56 AM 75.9 °F - 73.9 °F 94% 30.00 in 4.0 mi Calm Calm - N/A   Overcast
6:56 AM 75.9 °F - 73.9 °F 94% 30.00 in 5.0 mi South 4.6 mph - N/A   Overcast
7:56 AM 78.1 °F - 75.0 °F 90% 30.01 in 7.0 mi South 3.5 mph - N/A   Overcast
8:56 AM 82.0 °F 89.4 °F 75.9 °F 82% 29.99 in 9.0 mi South 4.6 mph - N/A   Mostly Cloudy
9:17 AM 82.4 °F 89.5 °F 75.2 °F 79% 30.02 in 10.0 mi Variable 5.8 mph - N/A   Mostly Cloudy
9:24 AM 84.2 °F 92.3 °F 75.2 °F 74% 30.02 in 10.0 mi South 6.9 mph - N/A   Mostly Cloudy
9:38 AM 84.2 °F 92.3 °F 75.2 °F 74% 30.02 in 10.0 mi South 4.6 mph - N/A   Scattered Clouds
9:56 AM 84.9 °F 91.4 °F 73.0 °F 67% 30.00 in 10.0 mi Variable 5.8 mph - N/A   Partly Cloudy
10:26 AM 87.8 °F 95.6 °F 73.4 °F 62% 30.02 in 10.0 mi Variable 5.8 mph - N/A   Mostly Cloudy
10:36 AM 86.0 °F 93.4 °F 73.4 °F 66% 30.02 in 10.0 mi WSW 4.6 mph - N/A   Mostly Cloudy
10:56 AM 88.0 °F 96.5 °F 73.9 °F 63% 30.01 in 10.0 mi Variable 3.5 mph - N/A   Mostly Cloudy
11:56 AM 91.0 °F 99.3 °F 73.0 °F 55% 29.99 in 10.0 mi West 8.1 mph - N/A   Partly Cloudy
12:56 PM 91.0 °F 98.2 °F 72.0 °F 53% 29.96 in 10.0 mi West 3.5 mph - N/A   Scattered Clouds
1:22 PM 89.6 °F 96.2 °F 71.6 °F 55% 29.98 in 10.0 mi Variable 4.6 mph - N/A Thunderstorm Thunderstorm
1:56 PM 78.1 °F - 69.1 °F 74% 29.98 in 10.0 mi South 11.5 mph 18.4 mph 0.00 in Rain , Thunderstorm Light Thunderstorms and Rain
2:45 PM 75.2 °F - 71.6 °F 89% 29.99 in 1.8 mi SW 5.8 mph - 0.08 in Rain , Thunderstorm Heavy Thunderstorms and Rain
2:56 PM 75.0 °F - 72.0 °F 90% 29.98 in 2.5 mi Calm Calm - 0.13 in Rain , Thunderstorm Light Thunderstorms and Rain
3:03 PM 75.2 °F - 71.6 °F 89% 29.99 in 10.0 mi West 4.6 mph - 0.01 in Thunderstorm Thunderstorm
3:52 PM 75.2 °F - 71.6 °F 89% 29.99 in 10.0 mi Calm Calm - 0.01 in   Scattered Clouds
3:56 PM 75.0 °F - 71.1 °F 87% 29.98 in 10.0 mi Calm Calm - 0.01 in   Scattered Clouds
4:21 PM 75.2 °F - 69.8 °F 83% 30.01 in 10.0 mi NNW 12.7 mph 19.6 mph N/A Thunderstorm Thunderstorm
5:06 PM 71.6 °F - 66.2 °F 83% 30.02 in 1.8 mi Variable 5.8 mph 16.1 mph 0.10 in Rain , Thunderstorm Heavy Thunderstorms and Rain
5:15 PM 69.8 °F - 66.2 °F 88% 30.00 in 0.5 mi SSE 3.5 mph - 0.28 in Fog , Rain , Thunderstorm Heavy Thunderstorms and Rain
5:22 PM 69.8 °F - 66.2 °F 88% 30.00 in 2.0 mi Variable 3.5 mph - 0.30 in Rain , Thunderstorm Thunderstorms and Rain
5:56 PM 70.0 °F - 68.0 °F 93% 29.98 in 10.0 mi South 5.8 mph - 0.30 in Thunderstorm Thunderstorm
6:56 PM 70.0 °F - 68.0 °F 93% 29.97 in 10.0 mi Calm Calm - 0.00 in Thunderstorm Mostly Cloudy
7:09 PM 69.8 °F - 68.0 °F 94% 29.98 in 10.0 mi Calm Calm - 0.00 in Rain , Thunderstorm Light Thunderstorms and Rain
7:39 PM 69.8 °F - 68.0 °F 94% 29.97 in 10.0 mi Calm Calm - 0.00 in   Clear
7:56 PM 71.1 °F - 68.0 °F 90% 29.96 in 10.0 mi Calm Calm - 0.00 in   Partly Cloudy
8:56 PM 70.0 °F - 68.0 °F 93% 29.97 in 10.0 mi Calm Calm - N/A   Overcast
9:25 PM 69.8 °F - 68.0 °F 94% 29.99 in 10.0 mi SSE 4.6 mph - N/A Thunderstorm Thunderstorm
9:41 PM 69.8 °F - 68.0 °F 94% 29.99 in 10.0 mi South 4.6 mph - N/A   Partly Cloudy
9:56 PM 70.0 °F - 68.0 °F 93% 29.98 in 10.0 mi Calm Calm - N/A   Clear
10:56 PM 70.0 °F - 69.1 °F 97% 29.96 in 10.0 mi SSE 4.6 mph - N/A   Clear
11:56 PM 71.1 °F - 69.1 °F 93% 29.96 in 10.0 mi South 3.5 mph - N/A   Clear